Location: Unspecified
(0.0000°N, 0.0000°E)
Time: 12:06:24
(UTC+00:00)

STARLINK 1061 - Pass Details

Date: 11 December 2019
Orbit: 450 x 452 km, 53.0° (Epoch: 11 December)

Event Time Altitude Azimuth Distance (km) Brightness Sun altitude
Rises 19:51:04 0° 207° (SSW) 2,448 7.7 -26.9°
Reaches altitude 10° 19:53:13 10° 203° (SSW) 1,574 6.5 -27.4°
Enters shadow 19:54:17 18° 198° (SSW) 1,161 5.7 -27.6°
